Atlanta Fulton, GA

6:36 AM EDT on May 30, 2017 (GMT -0400)
Fulton County-Brown

Weather History for KFTY - April, 2013

Change the Weather History Date:

Sunday, April 21, 2013

  Actual Average Record
Temperature  
Mean Temperature 53 °F 62 °F  
Max Temperature 69 °F 74 °F 88 °F (2002)
Min Temperature 37 °F 50 °F 37 °F (2013)
Degree Days  
Heating Degree Days 12 4  
Month to date heating degree days 120 125  
Since 1 July heating degree days 139 2824  
Cooling Degree Days 0 1  
Month to date cooling degree days 27 19  
Year to date cooling degree days 27 25  
Growing Degree Days 3 (Base 50)    
Moisture  
Dew Point 38 °F    
Average Humidity 61    
Maximum Humidity 93    
Minimum Humidity 28    
Precipitation  
Precipitation 0.00 in 0.13 in 0.71 in (2003)
Month to date precipitation 2.76 2.56  
Year to date precipitation 3.20 16.54  
Snow  
Snow 0.00 in - - ()
Month to date snowfall 0.0  
Since 1 July snowfall 0.0  
Snow Depth 0.00 in    
Sea Level Pressure  
Sea Level Pressure 30.27 in    
Wind  
Wind Speed 7 mph (ENE)    
Max Wind Speed 17 mph    
Max Gust Speed 30 mph    
Visibility 10 miles    
Events      
T = Trace of Precipitation, MM = Missing Value Source: NWS Daily Summary

Daily Weather History Graph

Daily Weather History Graph

Search for Another Location

Airport or City:

Trip Planner

Search our weather history database for the weather conditions in past years. The results will help you decide how hot, cold, wet, or windy it might be!

Date:

Astronomy

Apr. 21, 2013 Rise Set
Actual Time 6:59 AM EDT 8:14 PM EDT
Civil Twilight 6:33 AM EDT 8:40 PM EDT
Nautical Twilight 6:03 AM EDT 9:11 PM EDT
Astronomical Twilight 5:30 AM EDT 9:43 PM EDT
Moon 4:09 PM EDT (4/21) 4:08 AM EDT (4/21)
Length of Visible Light 14h 06m
Length of Day
13h 14m
Waxing Gibbous, 79% of the Moon is Illuminated
Apr 21
Waxing Gibbous
Apr 25
Full
May 2
Last Quarter
May 9
New
May 18
First Quarter

Hourly Weather History & Observations

Time (EDT) Temp. Windchill Dew Point Humidity Pressure Visibility Wind Dir Wind Speed Gust Speed Precip Events Conditions
12:53 AM 42.1 °F - 37.9 °F 85% 30.24 in 10.0 mi Calm Calm - N/A   Clear
1:53 AM 41.0 °F - 39.0 °F 93% 30.25 in 10.0 mi Calm Calm - N/A   Clear
2:53 AM 41.0 °F - 39.0 °F 93% 30.24 in 10.0 mi Calm Calm - N/A   Clear
3:53 AM 41.0 °F - 39.0 °F 93% 30.25 in 10.0 mi Calm Calm - N/A   Clear
4:53 AM 37.9 °F 35.5 °F 36.0 °F 93% 30.26 in 10.0 mi NE 3.5 mph - N/A   Clear
5:53 AM 37.0 °F - 36.0 °F 96% 30.27 in 10.0 mi Calm Calm - N/A   Clear
6:53 AM 39.0 °F - 37.0 °F 93% 30.29 in 10.0 mi Calm Calm - N/A   Clear
7:53 AM 42.1 °F - 39.0 °F 89% 30.31 in 10.0 mi Calm Calm - N/A   Clear
8:53 AM 50.0 °F - 41.0 °F 71% 30.32 in 10.0 mi NNE 5.8 mph - N/A   Clear
9:53 AM 55.0 °F - 41.0 °F 59% 30.32 in 10.0 mi NE 8.1 mph - N/A   Clear
10:53 AM 60.1 °F - 42.1 °F 51% 30.33 in 10.0 mi NE 9.2 mph - N/A   Clear
11:53 AM 64.0 °F - 36.0 °F 35% 30.32 in 10.0 mi East 13.8 mph 20.7 mph N/A   Clear
12:53 PM 64.9 °F - 36.0 °F 34% 30.32 in 10.0 mi East 11.5 mph 19.6 mph N/A   Clear
1:53 PM 66.0 °F - 37.0 °F 34% 30.30 in 10.0 mi Variable 6.9 mph 19.6 mph N/A   Clear
2:53 PM 66.9 °F - 37.0 °F 33% 30.28 in 10.0 mi ESE 8.1 mph - N/A   Clear
3:53 PM 68.0 °F - 37.0 °F 32% 30.25 in 10.0 mi NE 10.4 mph 18.4 mph N/A   Clear
4:53 PM 69.1 °F - 36.0 °F 30% 30.23 in 10.0 mi East 10.4 mph 18.4 mph N/A   Clear
5:53 PM 69.1 °F - 37.0 °F 31% 30.23 in 10.0 mi East 16.1 mph 20.7 mph N/A   Clear
6:53 PM 68.0 °F - 37.0 °F 32% 30.24 in 10.0 mi ESE 10.4 mph 18.4 mph N/A   Clear
7:53 PM 66.0 °F - 37.9 °F 36% 30.25 in 10.0 mi East 9.2 mph - N/A   Clear
8:53 PM 64.0 °F - 37.9 °F 38% 30.27 in 10.0 mi East 6.9 mph - N/A   Clear
9:53 PM 62.1 °F - 37.9 °F 41% 30.28 in 10.0 mi East 6.9 mph - N/A   Clear
10:53 PM 60.1 °F - 39.0 °F 46% 30.28 in 10.0 mi ENE 8.1 mph - N/A   Clear
11:53 PM 57.9 °F - 39.0 °F 49% 30.27 in 10.0 mi ENE 8.1 mph - N/A   Clear